Regional & State Weather Roundups


450 
ASUS41 KLWX 181510
RWRLWX
REGIONAL WEATHER ROUNDUP
NATIONAL WEATHER SERVICE BALTIMORE MD/WASHINGTON DC
1100 AM EDT FRI AUG 18 2017
Note: "FAIR" indicates few or no clouds below 12,000 feet
with no significant weather and/or obstructions to visibility.
 TC=TEMPERATURE CELSIUS
 * =Non NWS site. Station does not report precipitation (e.g. rain,
    snow, etc.), thunder, or fog.
DCZ001-MDZ009-015-VAZ040>042-051-053>054-181600-
WASHINGTON METRO
  
CITY           SKY/WX    TMP DP  RH WIND       PRES   REMARKS
WASHINGTON NAT PTSUNNY   83  77  82 S9        29.87F HX  92           
DULLES         MOSUNNY   83  77  82 SE8       29.87S HX  92           
ANDREWS AFB    PTSUNNY   82  75  78 S7        29.87F                  
FT BELVOIR     PTSUNNY   82  75  78 S7        29.87F                  
QUANTICO       MOSUNNY   82  79  90 S10       29.88  HX  92           
COLLEGE PARK*  PTSUNNY   81  74  80 S5        29.86F                  
LEESBURG*      MOSUNNY   86  79  79 S6        29.88F HX  99           
MANASSAS*      MOSUNNY   84  76  76 S8        29.87  HX  93           
GAITHERSBURG*  PTSUNNY   86  77  74 S6        29.89F HX  97           
$$
MDZ006>007-011-014-181600-
BALTIMORE METRO
  
CITY           SKY/WX    TMP DP  RH WIND       PRES   REMARKS
BWI AIRPORT    PTSUNNY   83  77  82 VRB5      29.86F HX  92           
MD SCIENCE CTR   N/A     82  76  81 MISG      29.87                   
MARTIN STATE   CLOUDY    81  79  94 S6        29.88F FOG              
ANNAPOLIS      CLOUDY    84  79  85 S6        29.87  HX  96           
FORT MEADE*    CLOUDY    81  75  83 S3        29.89F                  
$$
MDZ012-015-019>023-181600-
MARYLAND EASTERN SHORE
  
CITY           SKY/WX    TMP DP  RH WIND       PRES   REMARKS
OCEAN CITY     CLOUDY    82  79  90 SW13G20   29.92  HX  92           
SALISBURY      MOSUNNY   82  78  88 S12       29.90F HX  91           
BAY BRIDGE AP* CLOUDY    84  77  79 S9        29.87F HX  94           
CAMBRIDGE*       N/A     84  77  79 S9        29.89S HX  94           
EASTON*        PTSUNNY   84  77  79 SW12      29.92F HX  94           
$$
MDZ017>025-181600-
SOUTHERN MARYLAND
  
CITY           SKY/WX    TMP DP  RH WIND       PRES   REMARKS
PATUXENT RIVER PTSUNNY   82  78  88 S14       29.88F HX  91           
ST INIGOES     LGT RAIN  82  79  90 S10       29.88S HX  92           
LEONARDTOWN*   CLOUDY    81  73  78 SW9       29.90S                  
$$
MDZ003>005-181600-
NORTH CENTRAL MARYLAND
  
CITY           SKY/WX    TMP DP  RH WIND       PRES   REMARKS
FREDERICK*     MOSUNNY   86  77  74 SW7       29.88F HX  97           
HAGERSTOWN APT MOSUNNY   85  74  69 S8        29.86  HX  92           
WESTMINSTER*   SUNNY     82  75  78 S3        29.88F                  
$$
MDZ501>502-181600-
WESTERN MARYLAND
  
CITY           SKY/WX    TMP DP  RH WIND       PRES   REMARKS
OAKLAND*       CLOUDY    70  66  88 SW10G23   29.94F                  
CUMBERLAND*    CLOUDY    77  73  88 CALM      29.90F                  
$$
VAZ025>031-181600-
SHENANDOAH VALLEY
  
CITY           SKY/WX    TMP DP  RH WIND       PRES   REMARKS
WINCHESTER*    SUNNY     82  72  69 S7        29.87F                  
FRONT ROYAL*   SUNNY     86  73  66 S3        29.87S HX  93           
LURAY*         SUNNY     88  72  58 S8        29.89S HX  94           
NEW MARKET*    SUNNY    N/A N/A N/A S7        29.88F                  
STAUNTON*      MOSUNNY   83  71  67 SW9       29.94S                  
WAYNESBORO*    MOSUNNY   82  73  73 SW8       29.95S                  
$$
WVZ021-048>050-054>055-181600-
EASTERN WEST VIRGINIA PANHANDLE
  
CITY           SKY/WX    TMP DP  RH WIND       PRES   REMARKS
MARTINSBURG    SUNNY     84  73  69 S8        29.85  HX  90           
PETERSBURG*    PTSUNNY   88  74  64 S5        29.87S HX  96           
$$
VAZ036>039-050-181600-
CENTRAL FOOTHILLS
  
CITY           SKY/WX    TMP DP  RH WIND       PRES   REMARKS
CHARLOTTESVILL SUNNY     87  78  74 S6        29.89S HX 100           
CULPEPER*      MOSUNNY   86  78  76 S5        29.89S HX  98           
ORANGE*        SUNNY     84  75  74 S7        29.89S HX  92           
GORDONSVILLE*  SUNNY     85  78  79 SW7       29.89F HX  95           
WARRENTON*     SUNNY     88  75  66 S8        29.88S HX  97           
$$
VAZ055>057-181600-
NORTH AND CENTRAL PIEDMONT
  
CITY           SKY/WX    TMP DP  RH WIND       PRES   REMARKS
FREDERICKSBRG* MOSUNNY   84  77  79 S6        29.87S HX  94           
STAFFORD*      SUNNY     83  79  87 S3        29.92S HX  95           
$$
NCZ024-NYZ072-PAZ021-071-VAZ022-071-181600-
OTHER REGIONAL OBSERVATIONS
  
CITY           SKY/WX    TMP DP  RH WIND       PRES   REMARKS
NEW YORK CITY  CLOUDY    76  75  97 CALM      29.91S FOG              
PHILADELPHIA   CLOUDY    80  75  84 S8        29.87                   
PITTSBURGH     PTSUNNY   77  73  87 SW5       29.86R                  
ROANOKE        MOSUNNY   86  70  58 W10       29.96  HX  90           
RICHMOND       PTSUNNY   82  76  81 SW6       29.91S                  
RALEIGH        MOSUNNY   88  78  72 SW7       29.94F HX 101           
$$
ANZ530>537-181600-
MARINE OBSERVATIONS
  
STATION/POSITION TIME  TEMP    WIND        PRES
                       AIR SEA DIR/SP/G
                 (UTC) (F)     (DEG/KT/KT) (MB)
THOMAS PT LIGHT  1500   79 80  190/ 10/ 11   N/A
BALT KEY BRIDGE  1448   80     200/  3/  4 1011.2F
COVE POINT       1448   80     220/ 19/ 21 1012.4F
LEWISETTA        1448   81 81  240/ 12/ 14 1012.0F
SOLOMONS ISLAND  1448   81 81  210/ 15/ 19   N/A
PINEY POINT      1442          230/  8/  9   N/A
$$